Zurück zum Katalog

COSMOS 1133

AktivNavigationLEO
NORAD 11541·PAYLOAD·🇷🇺 Russia

Gestartet Sep 25, 1979 von Plesetsk Cosmodrome

Loading…

Nächste Überflüge (nächste 24 Stunden)

TLE

AktuellSource: Space-Track

Epoche: Sep 14, 2026, 04:37 UTC

1 11541U 79084D   26257.19297934  .00000007  00000-0  14993-3 0  9992
2 11541  74.0258 170.2608 0028547 235.4355 277.6814 12.50884915 78910

Verfolge COSMOS 1133 in Echtzeit mit AllMySat

Download on the App Store